CWLEESTJE Weather Reports


Display with metric or nautical units.
time (UTC)temp
F
wind
direction
speed
MPH
gust
MPH
rain 1hr
in
rain 24hr
in
rain mn
in
humidity
%
barometer
mb
20260508151520 64 88 6.0 10.0 0.00 0.00 0.00 59
20260508150524 64 78 5.0 10.0 0.00 0.00 0.00 57
20260508145538 64 108 5.0 9.0 0.00 0.00 0.00 61
20260508144542 64 86 8.0 13.0 0.00 0.00 0.00 59
20260508143555 64 99 5.0 10.0 0.00 0.00 0.00 58
20260508142526 64 82 5.0 12.0 0.00 0.00 0.00 59
20260508141526 65 92 6.0 13.0 0.00 0.00 0.00 57
20260508140521 65 74 9.0 14.0 0.00 0.00 0.00 57
20260508135523 65 88 9.0 15.0 0.00 0.00 0.00 56
20260508134536 65 78 10.0 15.0 0.00 0.00 0.00 56
20260508133541 65 86 7.0 14.0 0.00 0.00 0.00 57
20260508132534 66 80 7.0 13.0 0.00 0.00 0.00 58
20260508131547 66 96 11.0 14.0 0.00 0.00 0.00 58
20260508130527 65 88 7.0 14.0 0.00 0.00 0.00 58
20260508125532 66 82 9.0 12.0 0.00 0.00 0.00 58
20260508124524 65 117 9.0 14.0 0.00 0.00 0.00 60
20260508123528 65 109 8.0 12.0 0.00 0.00 0.00 56
20260508122542 66 124 9.0 12.0 0.00 0.00 0.00 60
20260508121555 65 80 9.0 16.0 0.00 0.00 0.00 57
20260508120538 66 75 9.0 14.0 0.00 0.00 0.00 60
20260508115526 66 102 9.0 12.0 0.00 0.00 0.00 55
20260508114600 65 78 4.0 12.0 0.00 0.00 0.00 59
20260508113522 64 80 8.0 12.0 0.00 0.00 0.00 61
20260508112527 65 113 9.0 15.0 0.00 0.00 0.00 62
20260508111519 64 76 3.0 13.0 0.00 0.00 0.00 57
20260508110524 63 84 7.0 11.0 0.00 0.00 0.00 61
20260508105536 64 91 10.0 15.0 0.00 0.00 0.00 58
20260508104520 65 63 9.0 13.0 0.00 0.00 0.00 61
20260508103548 64 111 6.0 12.0 0.00 0.00 0.00 66
20260508102540 63 90 6.0 11.0 0.00 0.00 0.00 66
20260508101552 63 134 6.0 12.0 0.00 0.00 0.00 67
20260508100535 63 124 5.0 10.0 0.00 0.00 0.00 64
20260508095547 63 112 9.0 11.0 0.00 0.00 0.00 67
20260508094530 62 117 6.0 10.0 0.00 0.00 0.00 69
20260508093540 63 98 7.0 11.0 0.00 0.00 0.00 68
20260508092523 62 53 7.0 10.0 0.00 0.00 0.00 69
20260508091527 62 102 6.0 8.0 0.00 0.00 0.00 71
20260508090541 62 113 5.0 8.0 0.00 0.00 0.00 71
20260508085533 61 96 4.0 6.0 0.00 0.00 0.00 71
20260508084607 61 97 2.0 6.0 0.00 0.00 0.00 71
20260508083529 60 113 1.0 5.0 0.00 0.00 0.00 72
20260508082529 59 107 2.0 2.0 0.00 0.00 0.00 72
20260508081522 58 106 1.0 4.0 0.00 0.00 0.00 74
20260508080525 58 106 2.0 5.0 0.00 0.00 0.00 77
20260508075538 57 107 3.0 5.0 0.00 0.00 0.00 78
20260508074541 57 107 2.0 5.0 0.00 0.00 0.00 78
20260508073554 56 99 2.0 5.0 0.00 0.00 0.00 80
20260508072522 56 97 4.0 6.0 0.00 0.00 0.00 81
20260508071521 55 87 4.0 5.0 0.00 0.00 0.00 82
20260508070555 55 84 2.0 5.0 0.00 0.00 0.00 83
20260508065547 54 83 4.0 5.0 0.00 0.00 0.00 84
20260508064600 54 77 3.0 5.0 0.00 0.00 0.00 86
20260508063543 53 66 4.0 5.0 0.00 0.00 0.00 87
20260508062531 53 44 1.0 2.0 0.00 0.00 0.00 88
20260508061605 52 44 2.0 3.0 0.00 0.00 0.00 89
20260508060527 52 44 2.0 4.0 0.00 0.00 0.00 90
20260508055540 51 44 3.0 5.0 0.00 0.00 0.00 90
20260508054523 51 42 2.0 3.0 0.00 0.00 0.00 90
20260508053527 50 42 1.0 2.0 0.00 0.00 0.00 90
20260508052520 50 42 2.0 4.0 0.00 0.00 0.00 90
20260508051524 50 41 2.0 3.0 0.00 0.00 0.00 90
20260508050533 50 41 2.0 4.0 0.00 0.00 0.00 90
20260508045536 49 40 1.0 4.0 0.00 0.00 0.00 90
20260508044550 49 40 0.0 2.0 0.00 0.00 0.00 90
20260508043542 49 40 3.0 4.0 0.00 0.00 0.00 90
20260508042525 49 38 0.0 0.0 0.00 0.00 0.00 90
20260508041539 49 38 0.0 0.0 0.00 0.00 0.00 90
20260508040523 49 38 0.0 0.0 0.00 0.00 0.00 90
20260508035552 49 38 0.0 0.0 0.00 0.00 0.00 90
20260508034544 49 38 0.0 0.0 0.00 0.00 0.00 90
20260508033528 49 38 0.0 0.0 0.00 0.00 0.00 90
20260508032531 49 38 0.0 0.0 0.00 0.00 0.00 90
20260508031525 49 38 0.0 0.0 0.00 0.00 0.00 89
20260508030529 48 38 0.0 0.0 0.00 0.00 0.00 89
20260508025523 48 38 0.0 0.0 0.00 0.00 0.00 89
20260508024521 48 38 0.0 0.0 0.00 0.00 0.00 89
20260508023534 49 38 0.0 0.0 0.00 0.00 0.00 89
20260508022538 49 38 0.0 0.0 0.00 0.00 0.00 89
20260508021533 49 38 0.0 0.0 0.00 0.00 0.00 88
20260508020535 49 38 0.0 0.0 0.00 0.00 0.00 88
20260508015548 49 38 0.0 0.0 0.00 0.00 0.00 88
20260508014549 50 38 0.0 0.0 0.00 0.00 0.00 88
20260508013540 50 38 0.0 0.0 0.00 0.00 0.00 88
20260508012524 50 38 0.0 0.0 0.00 0.00 0.00 88
20260508011528 50 38 0.0 0.0 0.00 0.00 0.00 88
20260508010521 50 38 0.0 0.0 0.00 0.00 0.00 88
20260508005525 50 38 0.0 0.0 0.00 0.00 0.00 88
20260508004538 50 38 0.0 0.0 0.00 0.00 0.00 88
20260508003522 50 38 0.0 0.0 0.00 0.00 0.00 87
20260508002531 50 38 0.0 0.0 0.00 0.00 0.00 87
20260508001534 50 38 0.0 0.0 0.00 0.00 0.00 87
20260508000547 50 38 0.0 0.0 0.00 0.00 0.00 86
20260507235531 50 38 0.0 0.0 0.00 0.00 0.00 87
20260507234545 51 38 0.0 0.0 0.00 0.00 0.00 87
20260507233527 51 38 0.0 0.0 0.00 0.00 0.00 86
20260507232541 51 38 0.0 0.0 0.00 0.00 0.00 86
20260507231525 51 38 0.0 0.0 0.00 0.00 0.00 85
20260507230523 51 38 0.0 0.0 0.00 0.00 0.00 85
20260507225557 51 38 0.0 0.0 0.00 0.00 0.00 85
20260507224529 51 38 0.0 0.0 0.00 0.00 0.00 84
20260507223533 51 38 0.0 0.0 0.00 0.00 0.00 84
20260507222546 51 38 0.0 4.0 0.00 0.00 0.00 84
20260507221530 51 38 2.0 4.0 0.00 0.00 0.00 83
20260507220543 52 38 2.0 2.0 0.00 0.00 0.00 83
20260507215527 52 38 2.0 3.0 0.00 0.00 0.00 83
20260507214526 52 38 2.0 3.0 0.00 0.00 0.00 83
20260507213539 52 38 1.0 4.0 0.00 0.00 0.00 82
20260507212523 52 38 3.0 5.0 0.00 0.00 0.00 82
20260507211556 52 38 1.0 4.0 0.00 0.00 0.00 82
20260507210548 52 38 2.0 3.0 0.00 0.00 0.00 81
20260507205532 52 38 2.0 3.0 0.00 0.00 0.00 81
20260507204546 52 38 2.0 4.0 0.00 0.00 0.00 81
20260507203525 52 38 3.0 5.0 0.00 0.00 0.00 81
20260507202529 52 38 3.0 6.0 0.00 0.00 0.00 81
20260507201543 52 35 3.0 5.0 0.00 0.00 0.00 81
20260507200555 53 36 3.0 5.0 0.00 0.00 0.00 81
20260507195547 53 36 1.0 5.0 0.00 0.00 0.00 81
20260507194550 53 35 3.0 6.0 0.00 0.00 0.00 81
20260507193538 53 35 4.0 6.0 0.00 0.00 0.00 81
20260507192521 53 38 4.0 7.0 0.00 0.00 0.00 81
20260507191554 53 24 4.0 6.0 0.00 0.00 0.00 80
20260507190547 53 19 2.0 5.0 0.00 0.00 0.00 80
20260507185529 53 17 3.0 6.0 0.00 0.00 0.00 80
20260507184533 54 16 4.0 7.0 0.00 0.00 0.00 79
20260507183527 54 23 3.0 6.0 0.00 0.00 0.00 79
20260507182531 54 32 5.0 7.0 0.00 0.00 0.00 79
20260507181540 54 30 5.0 7.0 0.00 0.00 0.00 79
20260507180524 54 41 4.0 7.0 0.00 0.00 0.00 79
20260507175536 54 33 4.0 8.0 0.00 0.00 0.00 79
20260507174540 54 14 4.0 7.0 0.00 0.00 0.00 79
20260507173524 54 18 5.0 8.0 0.00 0.00 0.00 79
20260507172557 54 18 5.0 8.0 0.00 0.00 0.00 78
20260507171529 55 18 6.0 8.0 0.00 0.00 0.00 78
20260507170558 55 16 7.0 8.0 0.00 0.00 0.00 78
20260507165522 55 5 6.0 9.0 0.00 0.00 0.00 78
20260507164527 55 14 7.0 9.0 0.00 0.00 0.00 78
20260507163540 55 16 6.0 8.0 0.00 0.00 0.00 78
20260507162523 55 9 6.0 8.0 0.00 0.00 0.00 78
20260507161536 55 20 6.0 8.0 0.00 0.00 0.00 77
20260507160549 55 12 5.0 8.0 0.00 0.00 0.00 77
20260507155543 55 16 5.0 7.0 0.00 0.00 0.00 77
20260507154534 55 15 6.0 9.0 0.00 0.00 0.00 77
20260507153609 56 11 6.0 8.0 0.00 0.00 0.00 76
20260507152530 56 5 6.0 9.0 0.00 0.00 0.00 76